Time,TemperatureF,DewpointF,PressureIn,WindDirection,WindDirectionDegrees,WindSpeedMPH,WindSpeedGustMPH,Humidity,HourlyPrecipIn,Conditions,Clouds,dailyrainin,SoftwareType,DateUTC
2013-01-07 00:00:00,40.7,38.5,30.29,NNE,23,0.2,0.4,92,0.06,,,0.00,WUHU216HW,2013-01-07 08:00:00,
2013-01-07 00:05:00,40.7,38.5,30.29,North,0,0.4,1.8,92,0.07,,,0.01,WUHU216HW,2013-01-07 08:05:00,
2013-01-07 00:10:00,40.7,38.5,30.29,NW,315,0.2,1.8,92,0.08,,,0.02,WUHU216HW,2013-01-07 08:10:00,
2013-01-07 00:15:00,40.7,38.5,30.28,West,270,1.6,1.6,92,0.08,,,0.03,WUHU216HW,2013-01-07 08:15:00,
2013-01-07 00:20:00,40.7,38.5,30.28,NNW,338,0.2,1.6,92,0.07,,,0.03,WUHU216HW,2013-01-07 08:20:00,
2013-01-07 00:25:00,40.7,38.5,30.28,NNW,338,0.4,1.6,92,0.08,,,0.04,WUHU216HW,2013-01-07 08:25:00,
2013-01-07 00:30:00,40.7,38.8,30.27,NW,315,0.4,1.8,93,0.08,,,0.05,WUHU216HW,2013-01-07 08:30:00,
2013-01-07 00:35:00,40.7,38.5,30.27,North,0,0.4,1.8,92,0.08,,,0.06,WUHU216HW,2013-01-07 08:35:00,
2013-01-07 00:40:00,40.7,38.5,30.27,WNW,293,0.2,1.1,92,0.08,,,0.06,WUHU216HW,2013-01-07 08:40:00,
2013-01-07 00:45:00,40.7,38.8,30.27,ESE,113,0.2,1.1,93,0.09,,,0.07,WUHU216HW,2013-01-07 08:45:00,
2013-01-07 00:50:00,40.7,38.8,30.27,NNW,338,0.7,0.9,93,0.09,,,0.08,WUHU216HW,2013-01-07 08:50:00,
2013-01-07 00:55:00,40.7,38.8,30.27,NNE,23,0.0,2.0,93,0.09,,,0.09,WUHU216HW,2013-01-07 08:55:00,
2013-01-07 01:00:00,40.7,38.8,30.26,North,0,0.0,2.0,93,0.08,,,0.09,WUHU216HW,2013-01-07 09:00:00,
2013-01-07 01:05:00,40.7,38.8,30.27,West,270,0.0,1.8,93,0.09,,,0.10,WUHU216HW,2013-01-07 09:05:00,
2013-01-07 01:10:00,40.9,39.0,30.26,NNE,23,0.0,1.8,93,0.09,,,0.11,WUHU216HW,2013-01-07 09:10:00,
2013-01-07 01:15:00,40.9,39.0,30.26,NNE,23,0.7,1.1,93,0.09,,,0.12,WUHU216HW,2013-01-07 09:15:00,
2013-01-07 01:20:00,40.9,39.0,30.26,North,0,0.2,1.6,93,0.09,,,0.13,WUHU216HW,2013-01-07 09:20:00,
2013-01-07 01:25:00,40.9,39.0,30.26,NNE,23,0.4,1.6,93,0.09,,,0.13,WUHU216HW,2013-01-07 09:25:00,
2013-01-07 01:30:00,40.9,39.0,30.26,NNE,23,0.0,1.1,93,0.09,,,0.14,WUHU216HW,2013-01-07 09:30:00,
2013-01-07 01:35:00,40.9,39.0,30.26,NNE,23,0.0,0.4,93,0.09,,,0.15,WUHU216HW,2013-01-07 09:35:00,
2013-01-07 01:40:00,40.9,39.0,30.26,North,0,0.0,0.4,93,0.08,,,0.15,WUHU216HW,2013-01-07 09:40:00,
2013-01-07 01:45:00,40.9,39.0,30.26,North,0,0.2,0.4,93,0.09,,,0.16,WUHU216HW,2013-01-07 09:45:00,
2013-01-07 01:50:00,41.0,39.2,30.26,NW,315,0.4,0.4,93,0.09,,,0.17,WUHU216HW,2013-01-07 09:50:00,
2013-01-07 01:55:00,41.0,39.2,30.26,North,0,0.4,0.9,93,0.09,,,0.18,WUHU216HW,2013-01-07 09:55:00,
2013-01-07 02:00:00,40.9,39.0,30.26,NE,45,0.0,0.9,93,0.08,,,0.18,WUHU216HW,2013-01-07 10:00:00,
2013-01-07 02:05:00,41.0,39.2,30.25,NE,45,0.0,0.7,93,0.08,,,0.19,WUHU216HW,2013-01-07 10:05:00,
2013-01-07 02:10:00,40.9,39.0,30.25,ENE,68,0.0,0.9,93,0.08,,,0.19,WUHU216HW,2013-01-07 10:10:00,
2013-01-07 02:15:00,41.0,39.2,30.24,ENE,68,0.4,0.9,93,0.08,,,0.20,WUHU216HW,2013-01-07 10:15:00,
2013-01-07 02:20:00,40.9,39.0,30.24,NE,45,0.7,1.1,93,0.08,,,0.21,WUHU216HW,2013-01-07 10:20:00,
2013-01-07 02:25:00,41.0,39.2,30.24,ENE,68,0.0,1.1,93,0.07,,,0.21,WUHU216HW,2013-01-07 10:25:00,
2013-01-07 02:30:00,41.0,39.2,30.24,ENE,68,0.0,0.9,93,0.08,,,0.22,WUHU216HW,2013-01-07 10:30:00,
2013-01-07 02:35:00,41.0,39.2,30.24,ENE,68,0.0,0.9,93,0.08,,,0.23,WUHU216HW,2013-01-07 10:35:00,
2013-01-07 02:40:00,41.0,39.2,30.24,ENE,68,0.2,0.9,93,0.08,,,0.24,WUHU216HW,2013-01-07 10:40:00,
2013-01-07 02:45:00,41.0,39.2,30.23,NE,45,0.4,1.1,93,0.09,,,0.26,WUHU216HW,2013-01-07 10:45:00,
2013-01-07 02:50:00,41.0,39.2,30.23,NE,45,0.4,1.1,93,0.09,,,0.26,WUHU216HW,2013-01-07 10:50:00,
2013-01-07 02:55:00,41.0,39.2,30.23,NE,45,0.4,1.1,93,0.08,,,0.26,WUHU216HW,2013-01-07 10:55:00,
2013-01-07 03:00:00,41.2,39.3,30.22,NE,45,0.4,1.1,93,0.08,,,0.27,WUHU216HW,2013-01-07 11:00:00,
2013-01-07 03:05:00,41.2,39.3,30.22,NE,45,0.2,1.1,93,0.08,,,0.27,WUHU216HW,2013-01-07 11:05:00,
2013-01-07 03:10:00,41.2,39.3,30.22,NE,45,0.2,0.7,93,0.07,,,0.27,WUHU216HW,2013-01-07 11:10:00,
2013-01-07 03:15:00,41.4,39.5,30.22,ENE,68,0.4,1.1,93,0.07,,,0.27,WUHU216HW,2013-01-07 11:15:00,
2013-01-07 03:20:00,41.4,39.5,30.21,East,90,0.7,1.3,93,0.06,,,0.27,WUHU216HW,2013-01-07 11:20:00,
2013-01-07 03:25:00,41.4,39.5,30.22,East,90,0.4,1.3,93,0.06,,,0.27,WUHU216HW,2013-01-07 11:25:00,
2013-01-07 03:30:00,41.4,39.5,30.21,ESE,113,0.7,0.9,93,0.05,,,0.27,WUHU216HW,2013-01-07 11:30:00,
2013-01-07 03:35:00,41.4,39.5,30.22,NE,45,0.9,0.9,93,0.04,,,0.27,WUHU216HW,2013-01-07 11:35:00,
2013-01-07 03:40:00,41.6,40.0,30.21,NE,45,1.1,2.9,94,0.03,,,0.27,WUHU216HW,2013-01-07 11:40:00,
2013-01-07 03:45:00,41.8,39.9,30.21,NNE,23,0.4,2.9,93,0.02,,,0.27,WUHU216HW,2013-01-07 11:45:00,
2013-01-07 03:50:00,41.8,39.9,30.20,NE,45,0.9,1.1,93,0.01,,,0.27,WUHU216HW,2013-01-07 11:50:00,
2013-01-07 03:55:00,41.8,39.9,30.19,NE,45,0.4,1.1,93,0.01,,,0.27,WUHU216HW,2013-01-07 11:55:00,
2013-01-07 04:00:00,41.8,39.9,30.19,NE,45,0.2,1.1,93,0.00,,,0.27,WUHU216HW,2013-01-07 12:00:00,
2013-01-07 04:05:00,41.8,39.9,30.19,ENE,68,1.1,1.1,93,0.00,,,0.27,WUHU216HW,2013-01-07 12:05:00,
2013-01-07 04:10:00,41.9,40.1,30.19,NE,45,0.0,1.8,93,0.00,,,0.27,WUHU216HW,2013-01-07 12:10:00,
2013-01-07 04:15:00,41.9,40.1,30.19,North,0,0.9,1.8,93,0.00,,,0.27,WUHU216HW,2013-01-07 12:15:00,
2013-01-07 04:20:00,42.1,40.2,30.19,NNE,23,0.4,1.8,93,0.00,,,0.27,WUHU216HW,2013-01-07 12:20:00,
2013-01-07 04:25:00,42.1,40.2,30.19,NE,45,2.2,2.5,93,0.00,,,0.27,WUHU216HW,2013-01-07 12:25:00,
2013-01-07 04:30:00,42.1,40.2,30.18,WSW,248,0.4,2.5,93,0.00,,,0.27,WUHU216HW,2013-01-07 12:30:00,
2013-01-07 04:35:00,42.1,40.2,30.18,NNE,23,0.4,2.2,93,0.00,,,0.27,WUHU216HW,2013-01-07 12:35:00,
2013-01-07 04:40:00,42.1,40.2,30.18,SE,135,0.4,2.0,93,0.00,,,0.27,WUHU216HW,2013-01-07 12:40:00,
2013-01-07 04:45:00,42.3,40.4,30.17,SSE,158,1.1,1.3,93,0.00,,,0.27,WUHU216HW,2013-01-07 12:45:00,
2013-01-07 04:50:00,42.5,40.9,30.17,SW,225,0.0,1.8,94,0.00,,,0.27,WUHU216HW,2013-01-07 12:50:00,
2013-01-07 04:55:00,42.7,41.0,30.16,ESE,113,0.4,3.4,94,0.00,,,0.27,WUHU216HW,2013-01-07 12:55:00,
2013-01-07 05:00:00,42.8,41.2,30.16,SSW,203,1.1,3.4,94,0.00,,,0.27,WUHU216HW,2013-01-07 13:00:00,
2013-01-07 05:05:00,43.2,41.6,30.16,West,270,1.8,2.7,94,0.00,,,0.27,WUHU216HW,2013-01-07 13:05:00,
2013-01-07 05:10:00,43.6,41.9,30.15,West,270,2.0,3.1,94,0.00,,,0.27,WUHU216HW,2013-01-07 13:10:00,
2013-01-07 05:15:00,43.6,41.9,30.15,South,180,2.5,3.1,94,0.00,,,0.27,WUHU216HW,2013-01-07 13:15:00,
2013-01-07 05:20:00,43.9,42.3,30.14,SSW,203,2.5,2.7,94,0.00,,,0.27,WUHU216HW,2013-01-07 13:20:00,
2013-01-07 05:25:00,44.1,42.5,30.14,ENE,68,1.8,4.0,94,0.00,,,0.27,WUHU216HW,2013-01-07 13:25:00,
2013-01-07 05:30:00,44.3,42.7,30.14,SSW,203,0.7,4.7,94,0.00,,,0.27,WUHU216HW,2013-01-07 13:30:00,
2013-01-07 05:35:00,44.5,42.8,30.14,SE,135,0.4,5.4,94,0.00,,,0.27,WUHU216HW,2013-01-07 13:35:00,
2013-01-07 05:40:00,44.6,42.8,30.14,South,180,4.0,5.4,93,0.00,,,0.27,WUHU216HW,2013-01-07 13:40:00,
2013-01-07 05:45:00,44.6,42.8,30.14,SW,225,0.7,4.0,93,0.00,,,0.27,WUHU216HW,2013-01-07 13:45:00,
2013-01-07 05:50:00,44.8,42.9,30.14,SW,225,2.9,4.9,93,0.00,,,0.27,WUHU216HW,2013-01-07 13:50:00,
2013-01-07 05:55:00,45.0,43.1,30.14,South,180,2.7,4.9,93,0.00,,,0.27,WUHU216HW,2013-01-07 13:55:00,
2013-01-07 06:00:00,45.0,43.1,30.14,ESE,113,1.1,2.7,93,0.00,,,0.27,WUHU216HW,2013-01-07 14:00:00,
2013-01-07 06:05:00,45.0,43.1,30.14,South,180,0.4,4.5,93,0.00,,,0.27,WUHU216HW,2013-01-07 14:05:00,
2013-01-07 06:10:00,45.2,43.3,30.14,SSE,158,0.4,4.5,93,0.00,,,0.27,WUHU216HW,2013-01-07 14:10:00,
2013-01-07 06:15:00,45.4,43.5,30.14,SSW,203,5.1,5.1,93,0.00,,,0.27,WUHU216HW,2013-01-07 14:15:00,
2013-01-07 06:20:00,45.5,43.7,30.14,South,180,0.4,5.1,93,0.00,,,0.27,WUHU216HW,2013-01-07 14:20:00,
2013-01-07 06:25:00,45.5,43.4,30.14,SSW,203,1.6,3.8,92,0.00,,,0.27,WUHU216HW,2013-01-07 14:25:00,
2013-01-07 06:30:00,45.5,43.4,30.14,SSW,203,2.0,3.1,92,0.00,,,0.27,WUHU216HW,2013-01-07 14:30:00,
2013-01-07 06:35:00,45.5,43.4,30.14,South,180,2.2,4.0,92,0.00,,,0.27,WUHU216HW,2013-01-07 14:35:00,
2013-01-07 06:40:00,45.7,43.8,30.14,SSW,203,2.9,4.0,93,0.01,,,0.28,WUHU216HW,2013-01-07 14:40:00,
2013-01-07 06:45:00,45.7,43.8,30.14,SSW,203,2.9,3.4,93,0.01,,,0.28,WUHU216HW,2013-01-07 14:45:00,
2013-01-07 06:50:00,45.7,43.8,30.13,West,270,1.1,8.1,93,0.01,,,0.28,WUHU216HW,2013-01-07 14:50:00,
2013-01-07 06:55:00,45.7,43.8,30.13,SSW,203,1.8,9.6,93,0.01,,,0.28,WUHU216HW,2013-01-07 14:55:00,
2013-01-07 07:00:00,45.7,43.8,30.14,SSE,158,2.2,9.6,93,0.01,,,0.28,WUHU216HW,2013-01-07 15:00:00,
2013-01-07 07:05:00,45.7,43.8,30.14,SSW,203,3.6,5.6,93,0.01,,,0.28,WUHU216HW,2013-01-07 15:05:00,
2013-01-07 07:10:00,45.7,43.6,30.13,SSW,203,0.9,5.6,92,0.01,,,0.28,WUHU216HW,2013-01-07 15:10:00,
2013-01-07 07:15:00,45.9,44.0,30.12,SSW,203,4.5,4.7,93,0.01,,,0.28,WUHU216HW,2013-01-07 15:15:00,
2013-01-07 07:20:00,45.9,44.0,30.13,SW,225,3.4,4.7,93,0.01,,,0.28,WUHU216HW,2013-01-07 15:20:00,
2013-01-07 07:25:00,46.1,44.2,30.13,SSW,203,6.0,6.0,93,0.01,,,0.28,WUHU216HW,2013-01-07 15:25:00,
2013-01-07 07:30:00,46.1,44.2,30.12,SSW,203,3.4,6.3,93,0.01,,,0.28,WUHU216HW,2013-01-07 15:30:00,
2013-01-07 07:35:00,46.1,44.2,30.12,SSE,158,2.5,6.9,93,0.00,,,0.28,WUHU216HW,2013-01-07 15:35:00,
2013-01-07 07:40:00,46.3,44.4,30.12,West,270,3.1,6.9,93,0.00,,,0.28,WUHU216HW,2013-01-07 15:40:00,
2013-01-07 07:45:00,46.3,44.4,30.12,South,180,1.1,5.8,93,0.00,,,0.28,WUHU216HW,2013-01-07 15:45:00,
2013-01-07 07:50:00,46.4,44.6,30.12,SE,135,0.4,5.4,93,0.00,,,0.28,WUHU216HW,2013-01-07 15:50:00,
2013-01-07 07:55:00,46.4,44.6,30.12,SSE,158,0.4,5.1,93,0.00,,,0.28,WUHU216HW,2013-01-07 15:55:00,
2013-01-07 08:00:00,46.4,44.6,30.12,SSE,158,3.6,5.8,93,0.00,,,0.28,WUHU216HW,2013-01-07 16:00:00,
2013-01-07 08:05:00,46.6,44.5,30.13,North,0,0.2,5.8,92,0.00,,,0.28,WUHU216HW,2013-01-07 16:05:00,
2013-01-07 08:10:00,46.8,44.6,30.13,NW,315,0.4,4.0,92,0.00,,,0.28,WUHU216HW,2013-01-07 16:10:00,
2013-01-07 08:15:00,46.8,44.6,30.13,West,270,0.4,3.6,92,0.00,,,0.28,WUHU216HW,2013-01-07 16:15:00,
2013-01-07 08:20:00,46.8,44.6,30.13,SW,225,2.2,3.6,92,0.00,,,0.28,WUHU216HW,2013-01-07 16:20:00,
2013-01-07 08:25:00,47.0,44.8,30.14,North,0,0.2,2.9,92,0.00,,,0.28,WUHU216HW,2013-01-07 16:25:00,
2013-01-07 08:30:00,47.0,44.8,30.14,South,180,2.2,2.7,92,0.00,,,0.28,WUHU216HW,2013-01-07 16:30:00,
2013-01-07 08:35:00,47.2,45.0,30.14,South,180,0.4,2.7,92,0.00,,,0.28,WUHU216HW,2013-01-07 16:35:00,
2013-01-07 08:40:00,47.2,45.0,30.14,SW,225,1.8,2.7,92,0.00,,,0.28,WUHU216HW,2013-01-07 16:40:00,
2013-01-07 08:45:00,47.2,45.0,30.14,NE,45,3.1,3.1,92,0.00,,,0.28,WUHU216HW,2013-01-07 16:45:00,
2013-01-07 08:50:00,47.3,45.2,30.15,SSE,158,2.5,3.1,92,0.00,,,0.28,WUHU216HW,2013-01-07 16:50:00,
2013-01-07 08:55:00,47.5,45.4,30.15,West,270,0.4,3.4,92,0.00,,,0.28,WUHU216HW,2013-01-07 16:55:00,
2013-01-07 09:00:00,47.5,45.4,30.15,WSW,248,1.1,3.4,92,0.00,,,0.28,WUHU216HW,2013-01-07 17:00:00,
2013-01-07 09:05:00,47.5,45.1,30.15,South,180,1.8,4.3,91,0.00,,,0.28,WUHU216HW,2013-01-07 17:05:00,
2013-01-07 09:10:00,47.7,45.5,30.15,SSW,203,1.1,4.3,92,0.00,,,0.28,WUHU216HW,2013-01-07 17:10:00,
2013-01-07 09:15:00,47.7,45.3,30.16,WNW,293,3.1,4.0,91,0.00,,,0.28,WUHU216HW,2013-01-07 17:15:00,
2013-01-07 09:20:00,47.9,45.5,30.16,SSE,158,2.2,5.4,91,0.00,,,0.28,WUHU216HW,2013-01-07 17:20:00,
2013-01-07 09:25:00,48.1,45.6,30.16,SSW,203,3.4,5.4,91,0.00,,,0.28,WUHU216HW,2013-01-07 17:25:00,
2013-01-07 09:30:00,48.1,45.6,30.16,SSE,158,2.2,5.8,91,0.00,,,0.28,WUHU216HW,2013-01-07 17:30:00,
2013-01-07 09:35:00,48.2,45.8,30.17,SSW,203,0.7,6.3,91,0.00,,,0.28,WUHU216HW,2013-01-07 17:35:00,
2013-01-07 09:40:00,48.2,45.8,30.17,SW,225,3.6,6.3,91,0.00,,,0.28,WUHU216HW,2013-01-07 17:40:00,
2013-01-07 09:45:00,48.2,45.8,30.17,SSE,158,2.7,3.8,91,0.00,,,0.28,WUHU216HW,2013-01-07 17:45:00,
2013-01-07 09:50:00,48.4,46.3,30.17,WSW,248,4.0,5.1,92,0.00,,,0.28,WUHU216HW,2013-01-07 17:50:00,
2013-01-07 09:55:00,48.4,46.3,30.17,SSW,203,2.9,6.3,92,0.00,,,0.28,WUHU216HW,2013-01-07 17:55:00,
2013-01-07 10:00:00,48.4,46.3,30.17,SSE,158,1.1,6.3,92,0.00,,,0.28,WUHU216HW,2013-01-07 18:00:00,
2013-01-07 10:05:00,48.4,46.3,30.17,SW,225,1.8,5.4,92,0.00,,,0.28,WUHU216HW,2013-01-07 18:05:00,
2013-01-07 10:10:00,48.4,46.3,30.17,South,180,4.0,6.5,92,0.00,,,0.28,WUHU216HW,2013-01-07 18:10:00,
2013-01-07 10:15:00,48.4,46.3,30.18,SSW,203,0.7,6.5,92,0.00,,,0.28,WUHU216HW,2013-01-07 18:15:00,
2013-01-07 10:20:00,48.4,46.3,30.18,SSW,203,2.5,6.3,92,0.00,,,0.28,WUHU216HW,2013-01-07 18:20:00,
2013-01-07 10:25:00,48.4,46.5,30.19,South,180,3.6,6.3,93,0.00,,,0.28,WUHU216HW,2013-01-07 18:25:00,
2013-01-07 10:30:00,48.4,46.5,30.19,South,180,0.7,7.2,93,0.00,,,0.28,WUHU216HW,2013-01-07 18:30:00,
2013-01-07 10:35:00,48.6,46.7,30.20,SSE,158,2.0,7.2,93,0.00,,,0.28,WUHU216HW,2013-01-07 18:35:00,
2013-01-07 10:40:00,48.6,46.7,30.20,WSW,248,2.5,5.1,93,0.00,,,0.28,WUHU216HW,2013-01-07 18:40:00,
2013-01-07 10:45:00,48.6,46.7,30.19,SSE,158,3.6,4.7,93,0.00,,,0.28,WUHU216HW,2013-01-07 18:45:00,
2013-01-07 10:50:00,48.6,46.7,30.20,WSW,248,4.0,10.3,93,0.00,,,0.28,WUHU216HW,2013-01-07 18:50:00,
2013-01-07 10:55:00,48.8,46.6,30.20,SSW,203,1.8,10.3,92,0.00,,,0.28,WUHU216HW,2013-01-07 18:55:00,
2013-01-07 11:00:00,49.0,46.7,30.20,SW,225,2.0,6.5,92,0.00,,,0.28,WUHU216HW,2013-01-07 19:00:00,
2013-01-07 11:05:00,49.0,46.7,30.20,South,180,7.6,7.6,92,0.00,,,0.28,WUHU216HW,2013-01-07 19:05:00,
2013-01-07 11:10:00,49.0,46.7,30.21,South,180,3.4,8.5,92,0.00,,,0.28,WUHU216HW,2013-01-07 19:10:00,
2013-01-07 11:15:00,49.0,46.7,30.20,WNW,293,4.5,8.5,92,0.00,,,0.28,WUHU216HW,2013-01-07 19:15:00,
2013-01-07 11:20:00,49.0,46.7,30.20,SSE,158,2.7,7.6,92,0.00,,,0.28,WUHU216HW,2013-01-07 19:20:00,
2013-01-07 11:25:00,49.0,46.7,30.20,West,270,2.7,7.6,92,0.00,,,0.28,WUHU216HW,2013-01-07 19:25:00,
2013-01-07 11:30:00,49.1,46.9,30.19,SE,135,4.9,7.4,92,0.00,,,0.28,WUHU216HW,2013-01-07 19:30:00,
2013-01-07 11:35:00,49.1,46.9,30.19,SSW,203,4.7,8.5,92,0.00,,,0.28,WUHU216HW,2013-01-07 19:35:00,
2013-01-07 11:40:00,49.1,46.9,30.19,SSW,203,4.3,8.5,92,0.00,,,0.28,WUHU216HW,2013-01-07 19:40:00,
2013-01-07 11:45:00,49.1,46.9,30.20,SSW,203,6.0,6.9,92,0.00,,,0.28,WUHU216HW,2013-01-07 19:45:00,
2013-01-07 11:50:00,49.3,47.1,30.20,NNW,338,2.7,9.8,92,0.00,,,0.28,WUHU216HW,2013-01-07 19:50:00,
2013-01-07 11:55:00,49.3,47.1,30.19,SE,135,5.6,9.8,92,0.00,,,0.28,WUHU216HW,2013-01-07 19:55:00,
2013-01-07 12:00:00,49.3,47.1,30.19,SSW,203,3.6,7.6,92,0.00,,,0.28,WUHU216HW,2013-01-07 20:00:00,
2013-01-07 12:05:00,49.5,47.0,30.19,WNW,293,4.0,13.9,91,0.00,,,0.28,WUHU216HW,2013-01-07 20:05:00,
2013-01-07 12:10:00,49.5,47.0,30.19,WSW,248,4.9,13.9,91,0.00,,,0.28,WUHU216HW,2013-01-07 20:10:00,
2013-01-07 12:15:00,49.7,47.2,30.20,SE,135,6.5,6.7,91,0.00,,,0.28,WUHU216HW,2013-01-07 20:15:00,
2013-01-07 12:19:00,49.7,47.2,30.21,SSW,203,4.7,6.7,91,0.00,,,0.28,WUHU216HW,2013-01-07 20:19:00,
2013-01-07 12:24:00,49.7,47.2,30.20,NW,315,2.5,7.4,91,0.00,,,0.28,WUHU216HW,2013-01-07 20:24:00,
2013-01-07 12:29:00,49.7,47.2,30.19,SSW,203,5.4,7.4,91,0.00,,,0.28,WUHU216HW,2013-01-07 20:29:00,
2013-01-07 12:34:00,49.7,47.2,30.21,SSW,203,7.4,7.4,91,0.00,,,0.28,WUHU216HW,2013-01-07 20:34:00,
2013-01-07 12:39:00,49.9,47.3,30.22,SSW,203,4.7,9.6,91,0.00,,,0.28,WUHU216HW,2013-01-07 20:39:00,
2013-01-07 12:44:00,49.9,47.3,30.21,SSE,158,9.2,9.6,91,0.00,,,0.28,WUHU216HW,2013-01-07 20:44:00,
2013-01-07 12:49:00,49.9,47.3,30.21,WSW,248,5.1,9.2,91,0.00,,,0.28,WUHU216HW,2013-01-07 20:49:00,
2013-01-07 12:54:00,50.0,47.2,30.21,WNW,293,4.0,6.5,90,0.00,,,0.28,WUHU216HW,2013-01-07 20:54:00,
2013-01-07 12:59:00,50.0,47.2,30.22,SSW,203,3.4,6.5,90,0.00,,,0.28,WUHU216HW,2013-01-07 20:59:00,
2013-01-07 13:04:00,50.0,47.2,30.22,WSW,248,1.3,4.0,90,0.00,,,0.28,WUHU216HW,2013-01-07 21:04:00,
2013-01-07 13:09:00,50.0,47.2,30.22,SSE,158,1.8,7.6,90,0.00,,,0.28,WUHU216HW,2013-01-07 21:09:00,
2013-01-07 13:14:00,50.0,46.9,30.22,ESE,113,4.7,7.6,89,0.00,,,0.28,WUHU216HW,2013-01-07 21:14:00,
2013-01-07 13:19:00,50.0,46.9,30.22,SSW,203,9.2,9.2,89,0.00,,,0.28,WUHU216HW,2013-01-07 21:19:00,
2013-01-07 13:24:00,50.0,46.9,30.23,SSE,158,3.1,9.2,89,0.00,,,0.28,WUHU216HW,2013-01-07 21:24:00,
2013-01-07 13:29:00,50.0,46.9,30.23,SSE,158,2.2,8.3,89,0.00,,,0.28,WUHU216HW,2013-01-07 21:29:00,
2013-01-07 13:34:00,50.0,46.9,30.24,SSE,158,4.7,8.3,89,0.00,,,0.28,WUHU216HW,2013-01-07 21:34:00,
2013-01-07 13:39:00,50.0,46.9,30.25,SW,225,2.9,6.0,89,0.00,,,0.28,WUHU216HW,2013-01-07 21:39:00,
2013-01-07 13:44:00,50.0,46.5,30.25,SW,225,2.5,6.0,88,0.00,,,0.28,WUHU216HW,2013-01-07 21:44:00,
2013-01-07 13:49:00,50.0,46.5,30.25,SSW,203,1.8,4.0,88,0.00,,,0.28,WUHU216HW,2013-01-07 21:49:00,
2013-01-07 13:54:00,50.0,46.5,30.25,South,180,9.4,9.4,88,0.00,,,0.28,WUHU216HW,2013-01-07 21:54:00,
2013-01-07 13:59:00,50.0,46.5,30.26,SW,225,2.9,9.4,88,0.00,,,0.28,WUHU216HW,2013-01-07 21:59:00,
2013-01-07 14:04:00,50.0,46.5,30.26,WSW,248,1.6,6.9,88,0.00,,,0.28,WUHU216HW,2013-01-07 22:04:00,
2013-01-07 14:09:00,50.0,46.5,30.26,SSE,158,1.1,5.4,88,0.00,,,0.28,WUHU216HW,2013-01-07 22:09:00,
2013-01-07 14:14:00,50.0,46.5,30.26,SE,135,6.3,6.3,88,0.00,,,0.28,WUHU216HW,2013-01-07 22:14:00,
2013-01-07 14:19:00,50.0,46.3,30.26,WSW,248,3.1,6.3,87,0.00,,,0.28,WUHU216HW,2013-01-07 22:19:00,
2013-01-07 14:24:00,50.0,46.3,30.26,SSW,203,2.0,6.3,87,0.00,,,0.28,WUHU216HW,2013-01-07 22:24:00,
2013-01-07 14:29:00,50.0,46.3,30.26,SW,225,3.4,3.4,87,0.00,,,0.28,WUHU216HW,2013-01-07 22:29:00,
2013-01-07 14:34:00,50.0,46.5,30.27,SSW,203,4.0,5.6,88,0.00,,,0.28,WUHU216HW,2013-01-07 22:34:00,
2013-01-07 14:39:00,50.0,46.3,30.27,SE,135,2.2,5.6,87,0.00,,,0.28,WUHU216HW,2013-01-07 22:39:00,
2013-01-07 14:44:00,50.0,46.5,30.26,SSE,158,3.8,5.4,88,0.00,,,0.28,WUHU216HW,2013-01-07 22:44:00,
2013-01-07 14:49:00,50.0,46.5,30.27,South,180,2.5,4.0,88,0.00,,,0.28,WUHU216HW,2013-01-07 22:49:00,
2013-01-07 14:54:00,50.0,46.3,30.27,South,180,2.5,4.0,87,0.00,,,0.28,WUHU216HW,2013-01-07 22:54:00,
2013-01-07 14:59:00,50.0,46.3,30.27,WSW,248,6.0,6.0,87,0.00,,,0.28,WUHU216HW,2013-01-07 22:59:00,
2013-01-07 15:04:00,50.0,46.3,30.28,NW,315,0.9,6.0,87,0.00,,,0.28,WUHU216HW,2013-01-07 23:04:00,
2013-01-07 15:09:00,50.0,46.3,30.29,South,180,0.7,4.9,87,0.00,,,0.28,WUHU216HW,2013-01-07 23:09:00,
2013-01-07 15:14:00,50.0,46.3,30.29,SSE,158,8.9,8.9,87,0.00,,,0.28,WUHU216HW,2013-01-07 23:14:00,
2013-01-07 15:19:00,49.9,46.1,30.30,West,270,5.4,8.9,87,0.00,,,0.28,WUHU216HW,2013-01-07 23:19:00,
2013-01-07 15:24:00,49.9,46.1,30.30,WSW,248,2.0,5.4,87,0.00,,,0.28,WUHU216HW,2013-01-07 23:24:00,
2013-01-07 15:29:00,49.9,46.1,30.30,SSE,158,3.8,5.4,87,0.00,,,0.28,WUHU216HW,2013-01-07 23:29:00,
2013-01-07 15:34:00,49.7,45.6,30.31,East,90,1.8,6.0,86,0.00,,,0.28,WUHU216HW,2013-01-07 23:34:00,
2013-01-07 15:39:00,49.7,45.6,30.31,South,180,3.6,6.0,86,0.00,,,0.28,WUHU216HW,2013-01-07 23:39:00,
2013-01-07 15:44:00,49.7,45.9,30.32,ESE,113,4.3,4.3,87,0.00,,,0.28,WUHU216HW,2013-01-07 23:44:00,
2013-01-07 15:49:00,49.7,45.9,30.31,South,180,1.6,4.3,87,0.00,,,0.28,WUHU216HW,2013-01-07 23:49:00,
2013-01-07 15:54:00,49.5,45.7,30.31,SSE,158,4.0,4.7,87,0.00,,,0.28,WUHU216HW,2013-01-07 23:54:00,
2013-01-07 15:59:00,49.5,45.5,30.32,ESE,113,2.7,4.7,86,0.00,,,0.28,WUHU216HW,2013-01-07 23:59:00,
2013-01-07 16:04:00,49.5,45.5,30.32,SE,135,1.3,3.4,86,0.00,,,0.28,WUHU216HW,2013-01-08 00:04:00,
2013-01-07 16:09:00,49.3,45.5,30.33,SSE,158,1.8,3.4,87,0.00,,,0.28,WUHU216HW,2013-01-08 00:09:00,
2013-01-07 16:14:00,49.3,45.5,30.33,NNW,338,0.9,3.4,87,0.00,,,0.28,WUHU216HW,2013-01-08 00:14:00,
2013-01-07 16:19:00,49.3,45.5,30.34,SW,225,2.5,3.4,87,0.00,,,0.28,WUHU216HW,2013-01-08 00:19:00,
2013-01-07 16:24:00,49.3,45.5,30.34,SE,135,1.3,4.0,87,0.00,,,0.28,WUHU216HW,2013-01-08 00:24:00,
2013-01-07 16:29:00,49.3,45.3,30.33,SSW,203,1.8,4.5,86,0.00,,,0.28,WUHU216HW,2013-01-08 00:29:00,
2013-01-07 16:34:00,49.3,45.3,30.33,WNW,293,1.3,4.5,86,0.00,,,0.28,WUHU216HW,2013-01-08 00:34:00,
2013-01-07 16:39:00,49.3,45.3,30.33,SSE,158,1.3,1.8,86,0.00,,,0.28,WUHU216HW,2013-01-08 00:39:00,
2013-01-07 16:44:00,49.3,45.3,30.33,SW,225,1.3,3.4,86,0.00,,,0.28,WUHU216HW,2013-01-08 00:44:00,
2013-01-07 16:49:00,49.1,45.1,30.34,SSE,158,1.3,3.4,86,0.00,,,0.28,WUHU216HW,2013-01-08 00:49:00,
2013-01-07 16:54:00,49.1,45.1,30.34,SW,225,3.1,4.5,86,0.00,,,0.28,WUHU216HW,2013-01-08 00:54:00,
2013-01-07 16:59:00,49.1,45.1,30.35,South,180,1.8,4.5,86,0.00,,,0.28,WUHU216HW,2013-01-08 00:59:00,
2013-01-07 17:04:00,49.0,44.9,30.33,WSW,248,4.3,4.3,86,0.00,,,0.28,WUHU216HW,2013-01-08 01:04:00,
2013-01-07 17:09:00,49.0,44.9,30.34,SW,225,4.0,4.3,86,0.00,,,0.28,WUHU216HW,2013-01-08 01:09:00,
2013-01-07 17:14:00,49.0,45.3,30.35,SW,225,0.7,4.0,87,0.00,,,0.28,WUHU216HW,2013-01-08 01:14:00,
2013-01-07 17:19:00,49.0,45.3,30.35,South,180,5.6,5.6,87,0.00,,,0.28,WUHU216HW,2013-01-08 01:19:00,
2013-01-07 17:24:00,49.0,45.3,30.34,West,270,3.8,5.6,87,0.00,,,0.28,WUHU216HW,2013-01-08 01:24:00,
2013-01-07 17:29:00,49.0,45.3,30.35,South,180,4.0,4.7,87,0.00,,,0.28,WUHU216HW,2013-01-08 01:29:00,
2013-01-07 17:34:00,49.0,45.3,30.35,ENE,68,1.1,4.0,87,0.00,,,0.28,WUHU216HW,2013-01-08 01:34:00,
2013-01-07 17:39:00,49.0,45.3,30.36,SSW,203,0.4,6.3,87,0.00,,,0.28,WUHU216HW,2013-01-08 01:39:00,
2013-01-07 17:44:00,49.0,45.3,30.36,NNW,338,1.3,6.3,87,0.00,,,0.28,WUHU216HW,2013-01-08 01:44:00,
2013-01-07 17:49:00,49.0,45.3,30.36,SW,225,3.4,5.4,87,0.00,,,0.28,WUHU216HW,2013-01-08 01:49:00,
2013-01-07 17:54:00,48.8,45.1,30.35,WSW,248,2.5,5.4,87,0.00,,,0.28,WUHU216HW,2013-01-08 01:54:00,
2013-01-07 17:59:00,48.8,45.1,30.36,SW,225,1.8,3.6,87,0.00,,,0.28,WUHU216HW,2013-01-08 01:59:00,
2013-01-07 18:04:00,48.8,45.1,30.37,SE,135,2.5,3.6,87,0.00,,,0.28,WUHU216HW,2013-01-08 02:04:00,
2013-01-07 18:09:00,48.6,44.9,30.37,WSW,248,0.7,3.6,87,0.00,,,0.28,WUHU216HW,2013-01-08 02:09:00,
2013-01-07 18:14:00,48.8,45.1,30.36,South,180,2.2,3.8,87,0.00,,,0.28,WUHU216HW,2013-01-08 02:14:00,
2013-01-07 18:19:00,48.6,44.9,30.37,ESE,113,2.9,3.8,87,0.00,,,0.28,WUHU216HW,2013-01-08 02:19:00,
2013-01-07 18:24:00,48.6,44.9,30.36,SSW,203,1.8,4.3,87,0.00,,,0.28,WUHU216HW,2013-01-08 02:24:00,
2013-01-07 18:29:00,48.6,44.9,30.37,South,180,4.0,4.3,87,0.00,,,0.28,WUHU216HW,2013-01-08 02:29:00,
2013-01-07 18:34:00,48.6,44.9,30.37,South,180,7.2,7.2,87,0.00,,,0.28,WUHU216HW,2013-01-08 02:34:00,
2013-01-07 18:39:00,48.6,44.9,30.37,SSW,203,2.5,7.2,87,0.00,,,0.28,WUHU216HW,2013-01-08 02:39:00,
2013-01-07 18:44:00,48.4,44.7,30.37,SSW,203,1.3,2.7,87,0.00,,,0.28,WUHU216HW,2013-01-08 02:44:00,
2013-01-07 18:49:00,48.4,44.7,30.38,South,180,4.3,4.3,87,0.00,,,0.28,WUHU216HW,2013-01-08 02:49:00,
2013-01-07 18:54:00,48.4,44.7,30.38,SSE,158,3.1,4.5,87,0.00,,,0.28,WUHU216HW,2013-01-08 02:54:00,
2013-01-07 18:59:00,48.4,44.7,30.38,WSW,248,2.2,4.5,87,0.00,,,0.28,WUHU216HW,2013-01-08 02:59:00,
2013-01-07 19:04:00,48.2,44.6,30.38,SSW,203,2.2,4.5,87,0.00,,,0.28,WUHU216HW,2013-01-08 03:04:00,
2013-01-07 19:09:00,48.2,44.6,30.40,South,180,2.5,4.3,87,0.00,,,0.28,WUHU216HW,2013-01-08 03:09:00,
2013-01-07 19:14:00,48.2,44.3,30.40,SW,225,1.3,2.5,86,0.00,,,0.28,WUHU216HW,2013-01-08 03:14:00,
2013-01-07 19:19:00,48.2,44.3,30.39,WSW,248,3.4,4.5,86,0.00,,,0.28,WUHU216HW,2013-01-08 03:19:00,
2013-01-07 19:24:00,48.1,44.1,30.39,SW,225,2.0,4.5,86,0.00,,,0.28,WUHU216HW,2013-01-08 03:24:00,
2013-01-07 19:29:00,48.1,43.7,30.39,SW,225,3.8,4.9,85,0.00,,,0.28,WUHU216HW,2013-01-08 03:29:00,
2013-01-07 19:34:00,48.1,44.1,30.39,South,180,4.5,4.9,86,0.00,,,0.28,WUHU216HW,2013-01-08 03:34:00,
2013-01-07 19:39:00,47.9,43.6,30.39,SSW,203,2.5,6.5,85,0.00,,,0.28,WUHU216HW,2013-01-08 03:39:00,
2013-01-07 19:44:00,47.9,43.6,30.39,SSW,203,2.5,6.5,85,0.00,,,0.28,WUHU216HW,2013-01-08 03:44:00,
2013-01-07 19:49:00,47.9,43.6,30.39,SW,225,1.8,4.9,85,0.00,,,0.28,WUHU216HW,2013-01-08 03:49:00,
2013-01-07 19:54:00,47.9,43.6,30.39,WSW,248,1.1,4.9,85,0.00,,,0.28,WUHU216HW,2013-01-08 03:54:00,
2013-01-07 19:59:00,47.9,43.6,30.39,SW,225,1.1,2.2,85,0.00,,,0.28,WUHU216HW,2013-01-08 03:59:00,
2013-01-07 20:04:00,47.9,43.6,30.39,SSW,203,5.8,5.8,85,0.00,,,0.28,WUHU216HW,2013-01-08 04:04:00,
2013-01-07 20:09:00,47.9,43.6,30.40,WSW,248,4.3,5.8,85,0.00,,,0.28,WUHU216HW,2013-01-08 04:09:00,
2013-01-07 20:14:00,47.9,43.6,30.40,SSW,203,2.2,4.3,85,0.00,,,0.28,WUHU216HW,2013-01-08 04:14:00,
2013-01-07 20:19:00,47.9,43.3,30.40,SW,225,1.3,4.9,84,0.00,,,0.28,WUHU216HW,2013-01-08 04:19:00,
2013-01-07 20:24:00,47.9,43.3,30.41,West,270,1.8,4.9,84,0.00,,,0.28,WUHU216HW,2013-01-08 04:24:00,
2013-01-07 20:29:00,47.7,43.1,30.41,South,180,2.5,3.8,84,0.00,,,0.28,WUHU216HW,2013-01-08 04:29:00,
2013-01-07 20:34:00,47.7,43.4,30.41,East,90,0.7,3.8,85,0.00,,,0.28,WUHU216HW,2013-01-08 04:34:00,
2013-01-07 20:39:00,47.7,43.1,30.41,South,180,3.4,3.4,84,0.00,,,0.28,WUHU216HW,2013-01-08 04:39:00,
2013-01-07 20:44:00,47.7,43.1,30.41,SSW,203,0.0,3.4,84,0.00,,,0.28,WUHU216HW,2013-01-08 04:44:00,
2013-01-07 20:49:00,47.7,43.1,30.42,SSW,203,3.4,4.5,84,0.00,,,0.28,WUHU216HW,2013-01-08 04:49:00,
2013-01-07 20:54:00,47.5,42.9,30.42,SSW,203,0.9,4.5,84,0.00,,,0.28,WUHU216HW,2013-01-08 04:54:00,
2013-01-07 20:59:00,47.5,42.9,30.42,South,180,0.4,2.9,84,0.00,,,0.28,WUHU216HW,2013-01-08 04:59:00,
2013-01-07 21:02:00,47.5,42.9,30.42,South,180,0.4,2.9,84,0.00,,,0.28,WUHU216HW,2013-01-08 05:02:00,
2013-01-07 21:03:00,47.5,42.9,30.43,SW,225,0.9,2.9,84,0.00,,,0.28,WUHU216HW,2013-01-08 05:03:00,
2013-01-07 21:08:00,47.5,42.9,30.43,WNW,293,0.7,2.5,84,0.00,,,0.28,WUHU216HW,2013-01-08 05:08:00,
2013-01-07 21:13:00,47.5,42.6,30.43,SSW,203,1.6,3.8,83,0.00,,,0.28,WUHU216HW,2013-01-08 05:13:00,
2013-01-07 21:18:00,47.5,42.6,30.43,SE,135,0.2,3.8,83,0.00,,,0.28,WUHU216HW,2013-01-08 05:18:00,
2013-01-07 21:23:00,47.5,42.6,30.43,SW,225,2.5,4.7,83,0.00,,,0.28,WUHU216HW,2013-01-08 05:23:00,
2013-01-07 21:28:00,47.5,42.6,30.43,South,180,1.1,4.7,83,0.00,,,0.28,WUHU216HW,2013-01-08 05:28:00,
2013-01-07 21:33:00,47.3,42.5,30.43,SSW,203,2.9,2.9,83,0.00,,,0.28,WUHU216HW,2013-01-08 05:33:00,
2013-01-07 21:38:00,47.3,42.5,30.44,SW,225,1.1,2.9,83,0.00,,,0.28,WUHU216HW,2013-01-08 05:38:00,
2013-01-07 21:43:00,47.3,42.5,30.44,SSE,158,1.3,2.2,83,0.00,,,0.28,WUHU216HW,2013-01-08 05:43:00,
2013-01-07 21:48:00,47.3,42.8,30.44,WSW,248,0.7,3.1,84,0.00,,,0.28,WUHU216HW,2013-01-08 05:48:00,
2013-01-07 21:53:00,47.2,42.6,30.44,SSE,158,0.9,3.1,84,0.00,,,0.28,WUHU216HW,2013-01-08 05:53:00,
2013-01-07 21:58:00,47.2,42.6,30.44,SSE,158,6.0,6.0,84,0.00,,,0.28,WUHU216HW,2013-01-08 05:58:00,
2013-01-07 22:03:00,47.2,42.6,30.44,SSW,203,2.9,6.0,84,0.00,,,0.28,WUHU216HW,2013-01-08 06:03:00,
2013-01-07 22:08:00,47.2,42.6,30.44,WSW,248,0.2,2.9,84,0.00,,,0.28,WUHU216HW,2013-01-08 06:08:00,
2013-01-07 22:13:00,47.2,42.6,30.44,SSW,203,0.2,3.1,84,0.00,,,0.28,WUHU216HW,2013-01-08 06:13:00,
2013-01-07 22:18:00,47.2,42.6,30.44,SW,225,1.8,5.1,84,0.00,,,0.28,WUHU216HW,2013-01-08 06:18:00,
2013-01-07 22:23:00,47.2,42.3,30.45,SSW,203,3.8,5.1,83,0.00,,,0.28,WUHU216HW,2013-01-08 06:23:00,
2013-01-07 22:28:00,47.2,42.6,30.45,SW,225,1.1,3.8,84,0.00,,,0.28,WUHU216HW,2013-01-08 06:28:00,
2013-01-07 22:33:00,47.2,42.3,30.45,SSE,158,2.2,3.6,83,0.00,,,0.28,WUHU216HW,2013-01-08 06:33:00,
2013-01-07 22:38:00,47.2,42.3,30.44,WNW,293,2.5,3.6,83,0.00,,,0.28,WUHU216HW,2013-01-08 06:38:00,
2013-01-07 22:43:00,47.2,42.3,30.44,SW,225,1.1,2.7,83,0.00,,,0.28,WUHU216HW,2013-01-08 06:43:00,
2013-01-07 22:48:00,47.2,42.3,30.45,ENE,68,0.4,2.7,83,0.00,,,0.28,WUHU216HW,2013-01-08 06:48:00,
2013-01-07 22:53:00,47.2,42.3,30.45,SE,135,0.4,1.8,83,0.00,,,0.28,WUHU216HW,2013-01-08 06:53:00,
2013-01-07 22:58:00,47.2,42.3,30.45,West,270,0.4,1.8,83,0.00,,,0.28,WUHU216HW,2013-01-08 06:58:00,
2013-01-07 23:03:00,47.2,42.3,30.46,South,180,1.1,2.0,83,0.00,,,0.28,WUHU216HW,2013-01-08 07:03:00,
2013-01-07 23:08:00,47.2,42.3,30.46,SSE,158,0.2,2.0,83,0.00,,,0.28,WUHU216HW,2013-01-08 07:08:00,
2013-01-07 23:13:00,47.2,42.3,30.47,SW,225,1.1,2.2,83,0.00,,,0.28,WUHU216HW,2013-01-08 07:13:00,
2013-01-07 23:18:00,47.2,42.3,30.47,SSE,158,1.1,2.2,83,0.00,,,0.28,WUHU216HW,2013-01-08 07:18:00,
2013-01-07 23:23:00,47.2,42.3,30.46,SW,225,2.0,2.0,83,0.00,,,0.28,WUHU216HW,2013-01-08 07:23:00,
2013-01-07 23:28:00,47.2,42.3,30.46,WSW,248,1.8,2.5,83,0.00,,,0.28,WUHU216HW,2013-01-08 07:28:00,
2013-01-07 23:33:00,47.2,42.3,30.46,SSW,203,0.0,2.5,83,0.00,,,0.28,WUHU216HW,2013-01-08 07:33:00,
2013-01-07 23:38:00,47.2,42.3,30.46,SSE,158,1.1,2.0,83,0.00,,,0.28,WUHU216HW,2013-01-08 07:38:00,
2013-01-07 23:43:00,47.0,42.1,30.47,South,180,0.4,2.0,83,0.00,,,0.28,WUHU216HW,2013-01-08 07:43:00,
2013-01-07 23:48:00,47.0,42.1,30.46,NW,315,0.7,2.0,83,0.00,,,0.28,WUHU216HW,2013-01-08 07:48:00,
2013-01-07 23:53:00,47.0,41.8,30.46,West,270,0.0,3.4,82,0.00,,,0.28,WUHU216HW,2013-01-08 07:53:00,
2013-01-07 23:58:00,47.0,42.1,30.46,South,180,0.4,3.4,83,0.00,,,0.28,WUHU216HW,2013-01-08 07:58:00,